Wind_Speed
44 43 42 41 37 19 8 22 5 35 14 9 6 3 4 6 10 13 6 4 5 3 4 6 4 4 3 13 7 5 4 2 4 3 4 1 2 2 4 5 4 1 3 5
41 42 41 40 39 24 13 6 6 28 15 5 4 3 4 7 9 7 7 7 5 3 5 5 4 4 5 10 7 4 6 3 3 6 6 1 3 3 4 3 3 6 6 5
38 41 42 39 37 26 12 5 4 10 22 9 5 3 4 3 7 4 4 5 4 3 5 4 4 7 3 9 10 8 5 1 2 6 6 3 4 4 4 4 3 4 5 5
34 38 41 41 35 33 12 8 1 3 4 7 4 4 1 3 5 8 11 3 7 1 3 4 5 4 5 3 15 8 3 3 0 2 2 3 2 4 6 5 3 4 2 7
29 34 37 41 40 31 34 6 3 5 4 2 4 5 3 3 5 3 6 4 4 5 4 4 3 2 4 1 7 7 8 2 2 1 3 5 3 3 3 5 3 4 6 3
24 28 33 36 38 39 20 15 8 4 6 4 4 2 1 2 2 2 1 2 1 3 1 4 7 7 6 2 4 5 5 4 3 3 2 4 5 4 2 3 0 4 7 3
19 23 27 30 33 35 30 23 9 4 2 3 2 2 2 2 2 3 4 2 2 3 11 7 2 4 6 5 7 9 0 2 1 2 1 5 1 1 1 2 1 1 3 3
13 18 22 24 28 28 29 26 16 4 0 2 1 3 2 3 4 3 3 3 4 10 5 3 4 4 4 3 2 3 3 2 1 1 3 4 2 4 5 5 3 7 6 4
11 13 18 20 23 25 24 26 21 7 4 4 3 4 2 2 0 5 4 5 6 3 2 3 3 2 3 4 7 5 3 4 3 2 2 6 2 1 4 1 5 10 10 8
13 11 12 17 19 22 21 23 24 11 2 4 3 2 3 2 2 2 4 3 1 2 2 3 2 3 2 2 2 2 2 3 4 2 3 7 2 4 3 3 4 11 13 12
14 14 13 14 17 17 21 20 23 17 5 5 5 4 4 3 3 3 0 2 2 3 3 3 3 2 4 1 3 5 5 5 3 3 1 7 8 5 4 2 8 10 9 9
16 15 14 13 16 17 17 19 23 20 3 4 7 9 8 7 6 4 3 2 3 3 4 0 2 2 1 2 3 2 3 5 3 6 5 3 20 3 7 10 12 11 11 9
19 16 16 14 15 17 17 17 21 16 5 5 5 8 10 10 9 9 4 4 4 3 2 5 2 2 3 3 5 0 4 5 3 3 3 7 15 14 10 12 9 11 9 8
22 19 17 16 15 17 18 17 17 7 4 2 4 8 9 10 10 10 10 5 4 5 4 1 2 2 5 3 1 3 3 8 4 6 7 5 19 24 20 18 15 14 11 8
25 22 19 17 17 16 16 17 12 7 3 4 6 12 13 12 10 11 10 7 7 5 3 1 2 3 2 1 1 4 12 8 6 7 12 5 5 21 28 25 23 18 11 8
27 24 20 19 18 15 12 5 2 9 7 6 2 5 7 10 11 11 9 8 8 4 2 3 3 2 2 1 3 10 22 18 16 3 6 11 4 9 25 21 19 16 11 9
28 25 21 19 19 15 10 6 8 15 12 5 5 3 4 10 9 9 9 10 4 4 3 3 2 5 4 2 4 7 8 22 22 15 8 8 10 7 19 20 19 15 12 10
30 25 21 18 19 17 17 19 15 13 8 6 2 3 3 12 8 6 10 8 8 6 3 2 4 3 2 4 16 16 9 6 20 21 18 7 9 11 19 22 21 18 14 13
27 21 19 19 15 11 14 14 10 11 11 4 4 3 3 12 5 6 7 8 2 5 3 4 6 2 6 10 11 12 16 14 7 22 22 16 11 15 18 21 21 19 17 15
27 28 13 9 9 16 8 6 6 9 9 8 6 6 3 10 6 3 7 4 2 3 3 9 3 4 27 23 22 21 14 10 17 20 22 23 21 21 22 21 16 14 13 13
39 17 12 12 13 6 5 3 5 6 4 9 8 17 5 11 3 3 7 3 2 2 2 4 2 4 4 2 5 8 9 15 22 21 21 21 24 22 22 21 19 17 16 14
37 18 14 12 8 6 4 4 3 5 5 8 7 8 6 8 5 3 4 2 2 4 6 2 3 4 3 7 10 9 9 10 15 20 21 19 19 21 19 19 17 17 14 13
27 13 9 9 7 4 7 8 4 4 8 13 10 3 9 6 5 3 2 3 3 9 2 4 5 4 7 11 11 7 7 8 11 18 21 19 17 18 17 16 16 15 13 12
11 12 7 7 5 6 6 5 5 10 8 21 18 10 4 4 3 2 4 1 3 2 2 6 2 2 6 10 12 8 5 7 11 17 20 22 19 15 14 14 14 12 12 13
11 11 8 9 10 8 7 16 10 8 21 29 11 6 6 2 2 2 4 2 4 6 5 2 5 3 6 9 10 10 10 9 11 15 22 24 21 18 15 15 13 12 13 16
11 10 6 4 8 4 9 16 11 19 29 14 6 3 3 4 2 3 7 5 7 3 2 7 3 4 6 8 10 11 12 12 12 14 21 24 23 19 16 16 15 13 15 17
9 6 21 18 9 9 15 17 18 25 23 3 4 6 5 3 2 3 4 5 2 5 6 4 4 8 11 12 13 14 15 15 14 15 20 23 21 20 20 20 15 15 17 16
Wind_Direction
21 19 19 18 14 21 38 45 44 5 36 58 36 40 18 16 343 16 29 89 37 38 2 30 53 62 6 353 329 352 359 4 101 178 214 237 131 177 124 151 210 102 157 254
23 22 23 23 18 16 24 66 44 27 56 66 12 38 43 50 10 4 10 22 27 355 21 65 55 353 8 1 3 359 344 315 74 3 336 119 218 202 130 113 76 189 135 251
22 24 25 26 25 21 29 52 26 24 49 71 99 39 16 28 21 49 4 19 14 23 28 17 32 351 341 336 360 333 315 39 87 196 252 15 160 163 163 139 137 181 211 169
21 22 27 30 30 32 43 44 33 23 343 13 64 77 14 2 10 357 25 34 21 332 66 5 25 8 326 315 3 359 58 97 257 175 347 354 305 173 179 177 178 175 239 184
18 22 26 33 35 35 46 63 57 66 45 358 54 15 347 28 320 49 342 79 317 16 120 162 196 22 26 6 328 3 338 177 349 155 25 26 265 257 300 181 146 89 130 189
11 21 22 30 35 36 45 40 51 79 5 14 54 267 224 288 9 311 298 300 40 20 202 262 269 248 253 268 334 330 16 5 31 254 13 47 307 255 191 79 345 130 188 160
3 13 19 25 32 37 34 34 33 41 290 84 191 203 217 285 301 205 307 340 99 335 317 304 253 247 251 253 246 202 22 70 332 247 70 198 224 78 332 281 192 202 96 99
351 1 11 18 26 34 32 29 28 29 134 163 217 250 231 288 278 263 272 284 306 315 327 43 29 340 12 318 295 182 215 45 16 214 228 305 251 197 174 186 263 176 154 133
322 346 357 8 18 21 28 26 18 12 131 248 186 155 224 200 249 336 256 278 305 333 39 68 122 211 219 309 328 49 105 74 105 3 175 226 262 166 151 189 271 166 154 150
301 314 338 354 2 12 15 18 14 360 308 218 205 167 181 161 139 194 287 322 285 4 70 79 148 225 171 229 212 175 9 11 172 232 276 292 288 158 141 130 253 150 156 158
289 296 309 336 341 358 6 2 2 359 292 254 233 236 199 181 209 140 257 19 279 38 73 129 216 152 216 97 218 189 170 155 210 88 135 274 147 96 199 188 124 150 151 163
277 280 285 300 330 334 351 354 350 344 290 262 243 256 244 248 250 262 213 247 195 185 85 53 105 183 161 161 263 323 281 195 178 186 212 200 188 219 196 163 163 173 178 179
271 272 275 280 308 320 328 344 344 335 303 280 254 242 242 245 248 235 242 237 204 192 154 156 166 196 129 186 241 222 253 171 197 34 249 203 201 213 198 196 191 184 188 191
265 267 268 272 279 308 315 333 335 313 293 287 240 251 245 251 237 226 230 258 193 159 169 148 135 165 196 234 230 203 198 146 178 267 262 244 229 213 209 196 193 184 185 195
259 262 261 262 264 291 303 318 320 255 292 268 279 273 257 238 227 223 225 223 204 174 164 111 238 205 139 5 8 245 189 185 179 225 207 179 196 217 203 195 193 191 195 204
252 255 254 255 257 273 297 299 262 234 266 302 302 244 220 204 207 207 207 204 196 191 218 227 239 211 191 184 242 255 211 212 217 294 226 204 197 184 197 198 196 197 203 215
247 250 247 247 249 258 250 232 266 286 262 269 295 261 215 194 188 188 188 190 186 208 240 237 225 191 218 149 238 259 236 228 226 234 218 215 195 186 193 201 198 213 232 239
238 239 233 235 241 251 254 254 279 291 222 238 244 268 237 188 175 159 169 166 188 216 230 207 194 174 204 258 243 245 245 245 226 219 216 221 201 198 196 199 207 218 232 252
225 215 214 221 235 237 244 245 248 225 215 249 201 228 246 174 164 146 148 162 152 186 212 214 164 182 228 229 247 262 248 234 258 210 210 217 216 207 202 207 214 221 233 234
202 188 188 207 201 218 239 239 201 192 211 228 234 210 228 175 177 174 128 156 172 182 210 151 197 255 256 260 265 274 261 261 231 202 208 212 215 213 211 216 220 227 231 232
183 185 199 182 187 187 210 198 176 175 257 218 222 192 153 199 164 186 215 156 138 171 201 175 231 266 249 280 320 301 281 252 243 245 254 248 239 227 220 214 221 229 229 230
186 185 159 152 176 197 194 191 144 200 236 193 172 191 173 173 185 123 197 142 108 211 131 108 257 250 296 323 305 284 285 285 244 228 236 240 232 225 228 225 225 227 226 226
163 174 158 172 176 190 198 193 237 220 196 181 163 142 169 155 181 99 139 150 195 122 123 223 233 283 347 347 333 304 291 298 230 221 226 225 213 205 211 216 217 216 222 234
166 155 181 200 183 228 199 187 173 190 166 157 149 124 159 164 148 158 163 121 101 79 253 232 228 66 10 5 13 7 320 282 254 240 229 221 218 218 216 216 218 220 230 242
168 173 199 206 208 212 214 201 157 153 159 151 121 104 149 159 171 188 104 80 236 221 231 218 130 35 10 10 5 354 335 317 283 249 233 226 227 226 225 224 223 224 232 243
171 187 183 147 159 186 171 185 163 161 156 139 133 132 145 207 152 156 219 166 227 232 211 131 92 47 12 358 354 346 335 325 298 257 240 231 230 230 230 225 227 234 242 244
181 208 204 176 190 189 187 183 176 167 155 164 150 170 188 99 161 236 192 218 278 117 110 95 12 351 341 332 327 322 315 309 298 270 243 236 233 231 229 227 233 243 246 244
Height
1505 1496 1485 1476 1467 1463 1461 1457 1463 1460 1455 1454 1470 1487 1484 1485 1483 1479 1477 1478 1479 1483 1483 1486 1488 1489 1484 1479 1476 1470 1468 1465 1467 1463 1457 1457 1458 1461 1465 1474 1480 1489 1487 1485
1510 1501 1491 1481 1472 1466 1461 1462 1466 1466 1456 1483 1492 1487 1489 1491 1488 1486 1482 1483 1483 1481 1479 1481 1481 1479 1479 1480 1479 1476 1473 1466 1480 1473 1462 1456 1459 1460 1460 1468 1474 1481 1490 1482
1514 1507 1496 1487 1479 1471 1467 1468 1476 1470 1470 1484 1490 1494 1496 1494 1494 1492 1491 1489 1486 1484 1485 1484 1487 1487 1480 1479 1479 1476 1475 1466 1463 1463 1455 1461 1461 1458 1459 1463 1476 1478 1474 1484
1518 1512 1503 1493 1485 1479 1474 1477 1489 1489 1494 1489 1493 1495 1504 1503 1501 1495 1493 1492 1494 1493 1496 1489 1493 1492 1490 1484 1481 1477 1478 1477 1471 1468 1467 1465 1462 1458 1461 1464 1464 1468 1464 1473
1521 1516 1509 1500 1491 1487 1481 1484 1489 1494 1495 1494 1494 1497 1506 1504 1501 1499 1498 1500 1498 1496 1503 1500 1505 1499 1495 1497 1489 1489 1486 1485 1479 1466 1468 1469 1463 1464 1462 1459 1462 1470 1474 1481
1523 1519 1514 1506 1499 1492 1488 1490 1491 1491 1502 1502 1502 1506 1503 1501 1499 1498 1496 1497 1499 1498 1498 1497 1496 1494 1493 1499 1500 1497 1497 1497 1487 1485 1472 1470 1471 1467 1468 1472 1479 1472 1472 1473
1524 1521 1517 1511 1505 1499 1498 1495 1493 1493 1505 1502 1507 1504 1502 1501 1500 1503 1497 1496 1498 1497 1495 1494 1494 1494 1492 1492 1487 1486 1488 1495 1488 1489 1471 1468 1469 1478 1478 1478 1480 1481 1481 1482
1524 1521 1518 1515 1510 1505 1501 1499 1497 1495 1503 1501 1503 1504 1504 1501 1500 1501 1499 1497 1496 1495 1493 1498 1503 1501 1496 1492 1487 1489 1491 1494 1486 1489 1493 1475 1476 1477 1478 1476 1469 1479 1482 1485
1524 1522 1519 1516 1512 1509 1504 1501 1499 1497 1498 1499 1496 1499 1503 1505 1505 1502 1498 1497 1496 1495 1495 1503 1517 1509 1511 1499 1491 1489 1491 1496 1506 1505 1498 1487 1473 1477 1477 1478 1468 1472 1476 1481
1522 1520 1519 1517 1513 1510 1507 1503 1501 1499 1495 1496 1497 1496 1499 1500 1501 1503 1498 1497 1496 1495 1504 1522 1515 1509 1507 1506 1504 1500 1507 1512 1504 1494 1498 1478 1479 1477 1478 1474 1464 1472 1475 1479
1520 1519 1517 1515 1514 1509 1507 1505 1501 1499 1496 1494 1494 1495 1495 1496 1498 1502 1497 1498 1498 1498 1508 1512 1511 1511 1507 1511 1508 1504 1496 1500 1502 1509 1502 1478 1478 1484 1483 1479 1477 1476 1479 1480
1514 1514 1513 1512 1510 1509 1505 1502 1500 1497 1494 1494 1493 1492 1491 1492 1494 1495 1494 1495 1493 1494 1501 1507 1506 1503 1508 1512 1505 1502 1506 1489 1490 1485 1477 1473 1474 1475 1475 1477 1477 1478 1479 1480
1510 1509 1509 1509 1508 1506 1504 1500 1498 1495 1494 1491 1489 1488 1489 1489 1489 1491 1494 1492 1492 1491 1493 1494 1499 1508 1500 1506 1501 1496 1487 1486 1489 1484 1470 1466 1468 1472 1472 1473 1474 1476 1480 1481
1504 1504 1504 1503 1503 1503 1502 1498 1496 1495 1494 1492 1486 1485 1486 1485 1486 1487 1489 1490 1490 1492 1493 1494 1498 1502 1494 1496 1492 1491 1479 1483 1481 1476 1462 1465 1461 1459 1463 1466 1469 1473 1476 1477
1498 1498 1499 1498 1498 1498 1497 1494 1492 1492 1496 1490 1485 1482 1480 1480 1482 1484 1486 1488 1490 1490 1492 1494 1497 1492 1492 1493 1492 1483 1465 1462 1466 1457 1443 1445 1446 1447 1452 1455 1459 1464 1468 1471
1490 1491 1493 1493 1493 1493 1494 1492 1489 1490 1491 1489 1484 1477 1473 1474 1476 1479 1482 1485 1489 1490 1491 1491 1489 1489 1491 1495 1490 1447 1445 1445 1447 1446 1446 1446 1446 1448 1453 1459 1464 1464 1465 1467
1482 1484 1488 1488 1488 1489 1491 1489 1486 1487 1489 1489 1482 1474 1471 1470 1472 1475 1477 1481 1486 1488 1488 1488 1487 1488 1488 1491 1482 1439 1440 1442 1444 1445 1448 1448 1448 1450 1453 1458 1461 1464 1467 1466
1473 1476 1480 1482 1482 1483 1483 1482 1481 1482 1487 1486 1484 1472 1470 1470 1469 1470 1472 1476 1482 1485 1484 1484 1485 1486 1486 1480 1439 1438 1439 1439 1440 1442 1445 1447 1448 1450 1453 1456 1459 1461 1461 1465
1465 1471 1475 1476 1478 1477 1474 1476 1475 1477 1486 1480 1478 1473 1466 1468 1467 1466 1468 1471 1478 1479 1478 1478 1481 1480 1474 1437 1433 1432 1434 1435 1436 1438 1441 1444 1446 1446 1448 1452 1453 1455 1458 1458
1462 1464 1469 1468 1468 1470 1473 1471 1472 1474 1476 1473 1467 1463 1466 1466 1467 1467 1465 1467 1469 1475 1471 1472 1473 1458 1433 1432 1432 1430 1432 1432 1433 1436 1438 1439 1441 1441 1442 1445 1450 1451 1452 1455
1446 1453 1459 1459 1462 1468 1468 1468 1470 1471 1469 1459 1452 1453 1458 1464 1466 1464 1463 1462 1466 1471 1467 1468 1465 1450 1427 1426 1426 1427 1426 1425 1427 1430 1433 1434 1435 1437 1439 1441 1444 1448 1448 1449
1435 1444 1451 1458 1461 1462 1464 1462 1464 1462 1452 1447 1446 1449 1452 1456 1459 1461 1464 1462 1465 1464 1463 1470 1461 1429 1424 1423 1423 1422 1421 1419 1419 1423 1427 1430 1430 1433 1436 1438 1440 1442 1445 1445
1432 1441 1446 1448 1451 1454 1452 1452 1453 1448 1435 1435 1439 1446 1449 1452 1455 1458 1461 1464 1462 1461 1465 1452 1432 1421 1422 1420 1418 1417 1416 1415 1417 1419 1423 1426 1428 1428 1430 1433 1435 1436 1438 1441
1420 1424 1436 1432 1433 1428 1421 1418 1418 1420 1422 1427 1434 1440 1446 1449 1451 1452 1452 1460 1463 1472 1468 1434 1420 1419 1419 1418 1417 1416 1417 1416 1416 1417 1420 1423 1425 1426 1427 1429 1431 1431 1433 1436
1404 1411 1410 1412 1404 1407 1406 1409 1412 1414 1418 1423 1431 1437 1442 1447 1448 1449 1455 1462 1456 1446 1424 1418 1417 1417 1417 1417 1417 1416 1415 1414 1414 1415 1417 1420 1422 1422 1424 1426 1427 1428 1429 1431
1388 1391 1393 1392 1401 1403 1403 1407 1408 1410 1416 1423 1427 1432 1437 1437 1439 1446 1441 1440 1430 1413 1416 1416 1416 1417 1417 1416 1416 1416 1415 1413 1413 1413 1414 1416 1417 1419 1421 1422 1423 1425 1426 1426
1373 1375 1378 1383 1387 1389 1394 1399 1403 1408 1413 1417 1420 1423 1422 1434 1437 1437 1433 1427 1418 1416 1417 1417 1416 1415 1414 1414 1414 1413 1411 1411 1410 1410 1410 1411 1414 1414 1415 1416 1419 1420 1421 1421